Hourly Weather Otjimbingwe

Today, 30 July, Friday

Time Temperature Precipitation Wind Pressure Humidity
00:00 +15°C° 0 mm 4 mps 682 mmHg 22%
01:00 +15°C° 0 mm 4 mps 682 mmHg 23%
02:00 +14°C° 0 mm 4 mps 682 mmHg 24%
03:00 +14°C° 0 mm 4 mps 682 mmHg 26%
04:00 +13°C° 0 mm 4 mps 682 mmHg 27%
05:00 +13°C° 0 mm 4 mps 682 mmHg 28%
06:00 +13°C° 0 mm 4 mps 683 mmHg 29%
07:00 +13°C° 0 mm 4 mps 683 mmHg 30%
08:00 +16°C° 0 mm 6 mps 684 mmHg 25%
09:00 +20°C° 0 mm 8 mps 685 mmHg 20%
10:00 +23°C° 0 mm 10 mps 685 mmHg 14%
11:00 +26°C° 0 mm 10 mps 685 mmHg 13%
12:00 +27°C° 0 mm 10 mps 684 mmHg 11%
13:00 +28°C° 0 mm 9 mps 684 mmHg 10%
14:00 +28°C° 0 mm 9 mps 683 mmHg 10%
15:00 +28°C° 0 mm 9 mps 683 mmHg 9%
16:00 +29°C° 0 mm 8 mps 682 mmHg 9%
17:00 +26°C° 0 mm 7 mps 683 mmHg 11%
18:00 +23°C° 0 mm 6 mps 683 mmHg 12%
19:00 +20°C° 0 mm 4 mps 683 mmHg 14%
20:00 +19°C° 0 mm 4 mps 683 mmHg 15%
21:00 +18°C° 0 mm 4 mps 683 mmHg 16%
22:00 +17°C° 0 mm 4 mps 683 mmHg 18%
23:00 +15°C° 0 mm 4 mps 683 mmHg 19%

Tomorrow, 31 July, Saturday

Time Temperature Precipitation Wind Pressure Humidity
00:00 +15°C° 0 mm 4 mps 683 mmHg 21%
01:00 +14°C° 0 mm 4 mps 683 mmHg 22%
02:00 +13°C° 0 mm 4 mps 683 mmHg 23%
03:00 +13°C° 0 mm 4 mps 683 mmHg 24%
04:00 +12°C° 0 mm 4 mps 682 mmHg 25%
05:00 +12°C° 0 mm 4 mps 683 mmHg 25%
06:00 +12°C° 0 mm 4 mps 683 mmHg 25%
07:00 +12°C° 0 mm 4 mps 683 mmHg 25%
08:00 +15°C° 0 mm 6 mps 684 mmHg 22%
09:00 +20°C° 0 mm 8 mps 685 mmHg 19%
10:00 +23°C° 0 mm 11 mps 685 mmHg 16%
11:00 +26°C° 0 mm 10 mps 685 mmHg 14%
12:00 +27°C° 0 mm 10 mps 684 mmHg 12%
13:00 +29°C° 0 mm 9 mps 684 mmHg 10%
14:00 +29°C° 0 mm 8 mps 683 mmHg 9%
15:00 +29°C° 0 mm 7 mps 683 mmHg 9%
16:00 +29°C° 0 mm 7 mps 683 mmHg 9%
17:00 +27°C° 0 mm 5 mps 683 mmHg 11%
18:00 +23°C° 0 mm 4 mps 682 mmHg 13%
19:00 +21°C° 0 mm 3 mps 682 mmHg 15%
20:00 +20°C° 0 mm 3 mps 683 mmHg 17%
21:00 +19°C° 0 mm 3 mps 683 mmHg 19%
22:00 +18°C° 0 mm 3 mps 683 mmHg 21%
23:00 +17°C° 0 mm 3 mps 683 mmHg 23%

Day after tomorrow, 1 August, Sunday

Time Temperature Precipitation Wind Pressure Humidity
00:00 +16°C° 0 mm 3 mps 683 mmHg 26%
01:00 +14°C° 0 mm 4 mps 683 mmHg 28%
02:00 +14°C° 0 mm 4 mps 682 mmHg 30%
03:00 +13°C° 0 mm 4 mps 682 mmHg 32%
04:00 +12°C° 0 mm 4 mps 682 mmHg 34%
05:00 +12°C° 0 mm 4 mps 682 mmHg 35%
06:00 +12°C° 0 mm 4 mps 683 mmHg 36%
07:00 +12°C° 0 mm 4 mps 683 mmHg 36%
08:00 +15°C° 0 mm 5 mps 683 mmHg 31%
09:00 +18°C° 0 mm 7 mps 684 mmHg 26%
10:00 +23°C° 0 mm 8 mps 684 mmHg 21%
11:00 +24°C° 0 mm 8 mps 684 mmHg 18%
12:00 +27°C° 0 mm 8 mps 683 mmHg 15%
13:00 +28°C° 0 mm 8 mps 683 mmHg 13%
14:00 +29°C° 0 mm 7 mps 682 mmHg 12%
15:00 +29°C° 0 mm 7 mps 682 mmHg 12%
16:00 +29°C° 0 mm 6 mps 681 mmHg 11%
17:00 +27°C° 0 mm 5 mps 681 mmHg 13%
18:00 +23°C° 0 mm 4 mps 681 mmHg 15%
19:00 +21°C° 0 mm 3 mps 681 mmHg 18%
20:00 +20°C° 0 mm 3 mps 681 mmHg 19%
21:00 +20°C° 0 mm 3 mps 682 mmHg 20%
22:00 +19°C° 0 mm 4 mps 682 mmHg 21%
23:00 +18°C° 0 mm 4 mps 682 mmHg 22%

2 August, Monday

Time Temperature Precipitation Wind Pressure Humidity
00:00 +17°C° 0 mm 4 mps 681 mmHg 24%
01:00 +15°C° 0 mm 4 mps 681 mmHg 26%
02:00 +15°C° 0 mm 4 mps 681 mmHg 28%
03:00 +14°C° 0 mm 4 mps 681 mmHg 29%
04:00 +14°C° 0 mm 4 mps 680 mmHg 31%
05:00 +14°C° 0 mm 4 mps 681 mmHg 32%
06:00 +14°C° 0 mm 4 mps 681 mmHg 32%
07:00 +14°C° 0 mm 4 mps 681 mmHg 33%
08:00 +17°C° 0 mm 5 mps 682 mmHg 29%
09:00 +21°C° 0 mm 7 mps 682 mmHg 24%
10:00 +24°C° 0 mm 9 mps 683 mmHg 20%
11:00 +27°C° 0 mm 7 mps 682 mmHg 17%
12:00 +28°C° 0 mm 6 mps 682 mmHg 15%
13:00 +30°C° 0 mm 5 mps 681 mmHg 12%
14:00 +30°C° 0 mm 4 mps 681 mmHg 12%
15:00 +30°C° 0 mm 3 mps 680 mmHg 12%
16:00 +30°C° 0 mm 2 mps 680 mmHg 11%
17:00 +27°C° 0 mm 2 mps 680 mmHg 14%
18:00 +25°C° 0 mm 1 mps 679 mmHg 16%
19:00 +22°C° 0 mm 1 mps 679 mmHg 19%
20:00 +22°C° 0 mm 1 mps 679 mmHg 20%
21:00 +21°C° 0 mm 1 mps 679 mmHg 21%
22:00 +20°C° 0 mm 1 mps 680 mmHg 21%
23:00 +19°C° 0 mm 2 mps 680 mmHg 21%

3 August, Tuesday

Time Temperature Precipitation Wind Pressure Humidity
00:00 +19°C° 0 mm 3 mps 679 mmHg 21%
01:00 +19°C° 0 mm 3 mps 679 mmHg 21%
02:00 +18°C° 0 mm 3 mps 679 mmHg 23%
03:00 +17°C° 0 mm 3 mps 679 mmHg 25%
04:00 +15°C° 0 mm 4 mps 679 mmHg 26%
05:00 +16°C° 0 mm 3 mps 679 mmHg 27%
06:00 +16°C° 0 mm 3 mps 679 mmHg 29%
07:00 +16°C° 0 mm 3 mps 680 mmHg 30%
08:00 +19°C° 0 mm 4 mps 680 mmHg 25%
09:00 +22°C° 0 mm 5 mps 681 mmHg 21%
10:00 +26°C° 0 mm 6 mps 682 mmHg 16%
11:00 +28°C° 0 mm 6 mps 681 mmHg 15%
12:00 +30°C° 0 mm 6 mps 681 mmHg 13%
13:00 +32°C° 0 mm 6 mps 681 mmHg 12%
14:00 +32°C° 0 mm 6 mps 680 mmHg 12%
15:00 +32°C° 0 mm 7 mps 680 mmHg 13%
16:00 +32°C° 0 mm 7 mps 680 mmHg 13%
17:00 +28°C° 0 mm 6 mps 680 mmHg 17%
18:00 +26°C° 0 mm 4 mps 680 mmHg 20%
19:00 +22°C° 0 mm 3 mps 680 mmHg 24%
20:00 +20°C° 0 mm 2 mps 680 mmHg 28%
21:00 +19°C° 0 mm 2 mps 680 mmHg 32%
22:00 +19°C° 0 mm 1 mps 680 mmHg 36%
23:00 +18°C° 0 mm 1 mps 680 mmHg 37%

4 August, Wednesday

Time Temperature Precipitation Wind Pressure Humidity
00:00 +16°C° 0 mm 1 mps 680 mmHg 39%
01:00 +16°C° 0 mm 1 mps 680 mmHg 40%
02:00 +14°C° 0 mm 0 mps 679 mmHg 40%
03:00 +14°C° 0 mm 0 mps 679 mmHg 40%
04:00 +14°C° 0 mm 0 mps 679 mmHg 41%
05:00 +15°C° 0 mm 1 mps 679 mmHg 39%
06:00 +16°C° 0 mm 1 mps 680 mmHg 37%
07:00 +16°C° 0 mm 1 mps 680 mmHg 36%
08:00 +19°C° 0 mm 2 mps 681 mmHg 31%
09:00 +23°C° 0 mm 2 mps 682 mmHg 25%
10:00 +26°C° 0 mm 2 mps 682 mmHg 20%
11:00 +27°C° 0 mm 2 mps 682 mmHg 18%
12:00 +28°C° 0 mm 2 mps 682 mmHg 17%
13:00 +30°C° 0 mm 1 mps 681 mmHg 15%
14:00 +30°C° 0 mm 2 mps 681 mmHg 15%
15:00 +30°C° 0 mm 3 mps 680 mmHg 15%
16:00 +30°C° 0 mm 4 mps 680 mmHg 15%
17:00 +27°C° 0 mm 4 mps 680 mmHg 18%
18:00 +25°C° 0 mm 4 mps 680 mmHg 21%
19:00 +21°C° 0 mm 4 mps 680 mmHg 24%
20:00 +20°C° 0 mm 3 mps 680 mmHg 28%
21:00 +19°C° 0 mm 2 mps 680 mmHg 33%
22:00 +18°C° 0 mm 1 mps 680 mmHg 37%
23:00 +18°C° 0 mm 1 mps 680 mmHg 39%
Show more